"read_dt","SO2 (ppb)","flags","PMT voltage (V)","lamp voltage (V)","lamp intensity (Hz)","internal temp (C)","react chamber temp (C)","sample flow (l/min)","pres (mmHg)","SO2 bkg (ppb)","SO2 coefficient"
2017-03-28 00:00:00,1675E-3,5C000400,-0724,0837,12108,032.2,045.6,0.212,748.7,01.17,0.508
2017-03-28 00:01:00,1708E-3,5C000400,-0724,0838,11962,032.2,045.6,0.212,748.7,01.17,0.508
2017-03-28 00:02:00,1727E-3,5C000400,-0724,0838,12096,032.2,045.6,0.212,748.6,01.17,0.508
2017-03-28 00:03:00,1704E-3,5C000400,-0724,0838,12031,032.2,045.6,0.213,748.6,01.17,0.508
2017-03-28 00:04:00,1725E-3,5C000400,-0724,0837,11934,032.2,045.6,0.212,748.6,01.17,0.508
2017-03-28 00:05:00,1806E-3,5C000400,-0724,0837,11988,032.2,045.6,0.212,748.6,01.17,0.508
2017-03-28 00:06:00,1785E-3,5C000400,-0724,0838,12185,032.2,045.6,0.213,748.2,01.17,0.508
2017-03-28 00:07:00,1692E-3,5C000400,-0724,0838,12024,032.2,045.6,0.213,748.3,01.17,0.508
2017-03-28 00:08:00,1797E-3,5C000400,-0724,0838,11974,032.2,045.6,0.212,748.3,01.17,0.508
2017-03-28 00:09:00,1726E-3,5C000400,-0724,0837,12133,032.1,045.6,0.212,747.9,01.17,0.508
2017-03-28 00:10:00,1622E-3,5C000400,-0724,0838,12133,032.1,045.6,0.212,747.9,01.17,0.508
2017-03-28 00:11:00,1781E-3,5C000400,-0724,0838,12117,032.1,045.6,0.212,747.8,01.17,0.508
2017-03-28 00:12:00,1644E-3,5C000400,-0724,0837,11912,032.1,045.6,0.212,748.1,01.17,0.508
2017-03-28 00:13:00,1808E-3,5C000400,-0724,0838,12014,032.1,045.6,0.212,747.8,01.17,0.508
2017-03-28 00:14:00,1765E-3,5C000400,-0724,0837,11922,032.1,045.6,0.213,747.8,01.17,0.508
2017-03-28 00:15:00,1770E-3,5C000400,-0724,0837,12017,032.1,045.6,0.213,748.0,01.17,0.508
2017-03-28 00:16:00,1551E-3,5C000400,-0724,0837,12119,032.1,045.6,0.213,748.0,01.17,0.508
2017-03-28 00:17:00,1721E-3,5C000400,-0724,0837,12023,032.1,045.6,0.212,748.0,01.17,0.508
2017-03-28 00:18:00,1686E-3,5C000400,-0724,0838,12074,032.1,045.6,0.212,747.8,01.17,0.508
2017-03-28 00:19:00,1672E-3,5C000400,-0724,0837,12093,032.1,045.6,0.212,747.6,01.17,0.508
2017-03-28 00:20:00,1684E-3,5C000400,-0724,0838,11795,032.1,045.6,0.213,747.9,01.17,0.508
2017-03-28 00:21:00,1670E-3,5C000400,-0724,0838,12054,032.0,045.6,0.213,747.7,01.17,0.508
2017-03-28 00:22:00,1735E-3,5C000400,-0724,0838,12048,032.0,045.6,0.213,747.7,01.17,0.508
2017-03-28 00:23:00,1690E-3,5C000400,-0724,0837,12042,032.0,045.6,0.213,747.8,01.17,0.508
2017-03-28 00:24:00,1759E-3,5C000400,-0724,0838,12019,032.0,045.6,0.212,747.9,01.17,0.508
2017-03-28 00:25:00,1701E-3,5C000400,-0724,0838,11947,032.0,045.6,0.213,747.8,01.17,0.508
2017-03-28 00:26:00,1668E-3,5C000400,-0724,0837,12100,032.0,045.6,0.213,748.0,01.17,0.508
2017-03-28 00:27:00,1655E-3,5C000400,-0724,0838,11878,032.0,045.6,0.213,748.0,01.17,0.508
2017-03-28 00:28:00,1580E-3,5C000400,-0724,0838,12126,032.0,045.6,0.213,748.1,01.17,0.508
2017-03-28 00:29:00,1661E-3,5C000400,-0724,0838,12024,032.0,045.6,0.213,748.0,01.17,0.508
2017-03-28 00:30:00,1630E-3,5C000400,-0724,0837,11972,032.0,045.6,0.213,747.8,01.17,0.508
2017-03-28 00:31:00,1681E-3,5C000400,-0724,0838,12061,031.9,045.6,0.213,747.7,01.17,0.508
2017-03-28 00:32:00,1799E-3,5C000400,-0724,0837,12094,031.9,045.6,0.213,747.8,01.17,0.508
2017-03-28 00:33:00,1717E-3,5C000400,-0724,0838,11899,031.9,045.6,0.213,747.7,01.17,0.508
2017-03-28 00:34:00,1801E-3,5C000400,-0724,0838,11982,031.9,045.6,0.213,747.5,01.17,0.508
2017-03-28 00:35:00,1614E-3,5C000400,-0724,0838,12121,031.9,045.6,0.213,748.2,01.17,0.508
2017-03-28 00:36:00,1662E-3,5C000400,-0724,0838,12067,031.9,045.6,0.213,747.8,01.17,0.508
2017-03-28 00:37:00,1704E-3,5C000400,-0724,0838,12078,031.8,045.6,0.213,747.9,01.17,0.508
2017-03-28 00:38:00,1634E-3,5C000400,-0724,0837,12110,031.8,045.6,0.213,747.5,01.17,0.508
2017-03-28 00:39:00,1671E-3,5C000400,-0724,0838,12098,031.8,045.6,0.213,747.3,01.17,0.508
2017-03-28 00:40:00,1747E-3,5C000400,-0724,0838,11969,031.8,045.6,0.213,747.8,01.17,0.508
2017-03-28 00:41:00,1663E-3,5C000400,-0724,0838,12131,031.8,045.6,0.213,747.9,01.17,0.508
2017-03-28 00:42:00,1614E-3,5C000400,-0724,0838,12018,031.8,045.6,0.213,747.1,01.17,0.508
2017-03-28 00:43:00,1709E-3,5C000400,-0724,0838,12015,031.8,045.6,0.213,747.5,01.17,0.508
2017-03-28 00:44:00,1672E-3,5C000400,-0724,0838,12120,031.8,045.6,0.213,747.5,01.17,0.508
2017-03-28 00:45:00,1634E-3,5C000400,-0724,0838,12014,031.7,045.6,0.213,747.3,01.17,0.508
2017-03-28 00:46:00,1747E-3,5C000400,-0724,0838,11986,031.7,045.6,0.213,747.8,01.17,0.508
2017-03-28 00:47:00,1739E-3,5C000400,-0724,0837,12123,031.7,045.6,0.213,747.6,01.17,0.508
2017-03-28 00:48:00,1703E-3,5C000400,-0724,0838,11979,031.7,045.6,0.213,747.5,01.17,0.508
2017-03-28 00:49:00,1684E-3,5C000400,-0724,0838,11965,031.7,045.6,0.214,747.8,01.17,0.508
2017-03-28 00:50:00,1726E-3,5C000400,-0724,0838,12037,031.7,045.6,0.213,747.5,01.17,0.508
2017-03-28 00:51:00,1764E-3,5C000400,-0724,0838,12046,031.7,045.6,0.213,747.8,01.17,0.508
2017-03-28 00:52:00,1871E-3,5C000400,-0724,0838,12132,031.6,045.6,0.213,748.1,01.17,0.508
2017-03-28 00:53:00,1705E-3,5C000400,-0724,0837,11985,031.6,045.6,0.213,748.1,01.17,0.508
2017-03-28 00:54:00,1681E-3,5C000400,-0724,0838,12089,031.6,045.6,0.213,748.2,01.17,0.508
2017-03-28 00:55:00,1780E-3,5C000400,-0724,0837,10775,031.6,045.6,0.214,748.2,01.17,0.508
2017-03-28 00:56:00,1675E-3,5C000400,-0724,0838,11952,031.6,045.6,0.213,748.1,01.17,0.508
2017-03-28 00:57:00,1718E-3,5C000400,-0724,0838,12048,031.6,045.6,0.214,748.2,01.17,0.508
2017-03-28 00:58:00,1718E-3,5C000400,-0724,0837,12023,031.5,045.6,0.214,748.4,01.17,0.508
2017-03-28 00:59:00,1598E-3,5C000400,-0724,0837,12032,031.5,045.6,0.214,748.4,01.17,0.508
2017-03-28 01:00:00,1760E-3,5C000400,-0724,0837,11863,031.5,045.6,0.214,748.2,01.17,0.508
2017-03-28 01:01:00,1627E-3,5C000400,-0724,0838,11985,031.5,045.6,0.214,748.5,01.17,0.508
2017-03-28 01:02:00,1791E-3,5C000400,-0724,0838,12163,031.5,045.6,0.214,748.3,01.17,0.508
2017-03-28 01:03:00,1721E-3,5C000400,-0724,0838,11986,031.5,045.6,0.214,748.5,01.17,0.508
2017-03-28 01:04:00,1699E-3,5C000400,-0724,0837,12080,031.5,045.6,0.214,748.5,01.17,0.508
2017-03-28 01:05:00,1767E-3,5C000400,-0724,0837,12017,031.5,045.6,0.214,748.5,01.17,0.508
2017-03-28 01:06:00,1676E-3,5C000400,-0724,0837,11935,031.4,045.6,0.214,748.4,01.17,0.508
2017-03-28 01:07:00,1740E-3,5C000400,-0724,0838,12092,031.4,045.6,0.214,748.3,01.17,0.508
2017-03-28 01:08:00,1750E-3,5C000400,-0724,0837,12012,031.4,045.6,0.214,748.0,01.17,0.508
2017-03-28 01:09:00,1773E-3,5C000400,-0724,0838,12112,031.4,045.6,0.214,748.3,01.17,0.508
2017-03-28 01:10:00,1731E-3,5C000400,-0724,0837,11992,031.4,045.6,0.214,748.4,01.17,0.508
2017-03-28 01:11:00,1727E-3,5C000400,-0724,0838,12140,031.4,045.6,0.214,748.5,01.17,0.508
2017-03-28 01:12:00,1660E-3,5C000400,-0724,0838,11960,031.4,045.6,0.214,748.4,01.17,0.508
2017-03-28 01:13:00,1674E-3,5C000400,-0724,0838,12209,031.3,045.6,0.214,748.3,01.17,0.508
2017-03-28 01:14:00,1695E-3,5C000400,-0724,0837,12006,031.3,045.6,0.214,748.3,01.17,0.508
2017-03-28 01:15:00,1614E-3,5C000400,-0724,0837,12058,031.3,045.6,0.214,748.5,01.17,0.508
2017-03-28 01:16:00,1644E-3,5C000400,-0724,0837,11999,031.3,045.6,0.214,748.2,01.17,0.508
2017-03-28 01:17:00,1664E-3,5C000400,-0724,0838,12012,031.3,045.6,0.214,748.4,01.17,0.508
2017-03-28 01:18:00,1637E-3,5C000400,-0724,0838,12088,031.3,045.6,0.214,748.6,01.17,0.508
2017-03-28 01:19:00,1785E-3,5C000400,-0724,0838,12134,031.3,045.6,0.214,748.5,01.17,0.508
2017-03-28 01:20:00,1690E-3,5C000400,-0724,0837,12152,031.3,045.6,0.214,748.7,01.17,0.508
2017-03-28 01:21:00,1684E-3,5C000400,-0724,0838,12088,031.3,045.6,0.215,748.9,01.17,0.508
2017-03-28 01:22:00,1675E-3,5C000400,-0724,0837,12034,031.3,045.5,0.215,748.8,01.17,0.508
2017-03-28 01:23:00,1654E-3,5C000400,-0724,0838,12116,031.2,045.6,0.215,748.6,01.17,0.508
2017-03-28 01:24:00,1744E-3,5C000400,-0724,0837,12196,031.2,045.6,0.214,748.5,01.17,0.508
2017-03-28 01:25:00,1584E-3,5C000400,-0724,0837,12033,031.2,045.6,0.215,748.4,01.17,0.508
2017-03-28 01:26:00,1643E-3,5C000400,-0724,0837,11961,031.2,045.6,0.215,748.5,01.17,0.508
2017-03-28 01:27:00,1688E-3,5C000400,-0724,0837,11989,031.2,045.5,0.215,748.7,01.17,0.508
2017-03-28 01:28:00,1604E-3,5C000400,-0724,0837,12066,031.2,045.6,0.215,748.6,01.17,0.508
2017-03-28 01:29:00,1799E-3,5C000400,-0724,0837,12006,031.1,045.6,0.215,748.6,01.17,0.508
2017-03-28 01:30:00,1735E-3,5C000400,-0724,0838,12171,031.1,045.6,0.215,748.8,01.17,0.508
2017-03-28 01:31:00,1747E-3,5C000400,-0724,0838,12083,031.1,045.6,0.215,748.8,01.17,0.508
2017-03-28 01:32:00,1596E-3,5C000400,-0724,0837,12081,031.1,045.6,0.215,748.7,01.17,0.508
2017-03-28 01:33:00,1555E-3,5C000400,-0724,0837,12079,031.1,045.5,0.215,748.7,01.17,0.508
2017-03-28 01:34:00,1741E-3,5C000400,-0724,0838,12054,031.1,045.5,0.215,748.7,01.17,0.508
2017-03-28 01:35:00,1674E-3,5C000400,-0724,0837,12103,031.1,045.6,0.215,748.8,01.17,0.508
2017-03-28 01:36:00,1615E-3,5C000400,-0724,0837,11940,031.0,045.6,0.214,749.0,01.17,0.508
2017-03-28 01:37:00,1695E-3,5C000400,-0724,0837,11985,031.0,045.6,0.215,748.6,01.17,0.508
2017-03-28 01:38:00,1794E-3,5C000400,-0724,0838,12102,031.0,045.6,0.215,749.1,01.17,0.508
2017-03-28 01:39:00,1742E-3,5C000400,-0724,0837,11985,031.0,045.6,0.215,749.1,01.17,0.508
2017-03-28 01:40:00,1747E-3,5C000400,-0724,0836,12079,031.0,045.6,0.215,749.1,01.17,0.508
2017-03-28 01:41:00,1664E-3,5C000400,-0724,0838,11997,031.0,045.5,0.215,749.3,01.17,0.508
2017-03-28 01:42:00,1488E-3,5C000400,-0724,0837,12132,031.0,045.5,0.215,749.1,01.17,0.508
2017-03-28 01:43:00,1617E-3,5C000400,-0724,0838,12134,030.9,045.5,0.215,748.8,01.17,0.508
2017-03-28 01:44:00,1669E-3,5C000400,-0724,0837,12070,030.9,045.5,0.215,749.4,01.17,0.508
2017-03-28 01:45:00,1738E-3,5C000400,-0724,0838,12058,030.9,045.5,0.215,749.2,01.17,0.508
2017-03-28 01:46:00,1813E-3,5C000400,-0724,0837,11995,030.9,045.5,0.215,749.4,01.17,0.508
2017-03-28 01:47:00,1663E-3,5C000400,-0724,0837,12071,030.9,045.5,0.215,749.2,01.17,0.508
2017-03-28 01:48:00,1659E-3,5C000400,-0724,0838,12213,030.9,045.5,0.215,749.3,01.17,0.508
2017-03-28 01:49:00,1741E-3,5C000400,-0724,0838,12034,030.9,045.5,0.215,749.0,01.17,0.508
2017-03-28 01:50:00,1823E-3,5C000400,-0724,0838,12020,030.9,045.5,0.215,749.3,01.17,0.508
2017-03-28 01:51:00,1709E-3,5C000400,-0724,0837,12112,030.8,045.5,0.215,749.5,01.17,0.508
2017-03-28 01:52:00,1676E-3,5C000400,-0724,0837,12086,030.8,045.5,0.215,749.6,01.17,0.508
2017-03-28 01:53:00,1676E-3,5C000400,-0724,0837,12068,030.8,045.5,0.215,749.9,01.17,0.508
2017-03-28 01:54:00,1768E-3,5C000400,-0724,0837,12007,030.8,045.6,0.215,749.8,01.17,0.508
2017-03-28 01:55:00,1646E-3,5C000400,-0724,0837,12088,030.8,045.6,0.215,749.8,01.17,0.508
2017-03-28 01:56:00,1768E-3,5C000400,-0724,0837,12060,030.8,045.5,0.215,749.7,01.17,0.508
2017-03-28 01:57:00,1609E-3,5C000400,-0724,0838,12180,030.8,045.5,0.215,749.8,01.17,0.508
2017-03-28 01:58:00,1752E-3,5C000400,-0724,0838,12109,030.8,045.5,0.215,749.7,01.17,0.508
2017-03-28 01:59:00,1740E-3,5C000400,-0724,0839,12012,030.8,045.5,0.215,749.9,01.17,0.508
2017-03-28 02:00:00,1622E-3,5C000400,-0724,0838,12058,030.8,045.5,0.216,749.8,01.17,0.508
2017-03-28 02:01:00,1736E-3,5C000400,-0724,0838,11995,030.7,045.6,0.216,750.1,01.17,0.508
2017-03-28 02:02:00,1661E-3,5C000400,-0724,0837,12008,030.7,045.5,0.216,749.9,01.17,0.508
2017-03-28 02:03:00,1688E-3,5C000400,-0724,0837,12057,030.7,045.5,0.215,749.9,01.17,0.508
2017-03-28 02:04:00,1683E-3,5C000400,-0724,0837,12013,030.7,045.6,0.215,749.9,01.17,0.508
2017-03-28 02:05:00,1662E-3,5C000400,-0724,0837,11978,030.7,045.6,0.216,750.1,01.17,0.508
2017-03-28 02:06:00,1791E-3,5C000400,-0724,0837,12138,030.7,045.5,0.216,749.9,01.17,0.508
2017-03-28 02:07:00,1680E-3,5C000400,-0724,0837,12184,030.7,045.5,0.216,750.0,01.17,0.508
2017-03-28 02:08:00,1784E-3,5C000400,-0724,0838,12090,030.7,045.5,0.216,749.8,01.17,0.508
2017-03-28 02:09:00,1651E-3,5C000400,-0724,0837,12048,030.7,045.5,0.216,750.0,01.17,0.508
2017-03-28 02:10:00,1659E-3,5C000400,-0724,0837,12067,030.6,045.5,0.215,750.2,01.17,0.508
2017-03-28 02:11:00,1628E-3,5C000400,-0724,0837,11978,030.6,045.5,0.216,750.2,01.17,0.508
2017-03-28 02:12:00,1700E-3,5C000400,-0724,0838,12202,030.6,045.5,0.216,750.3,01.17,0.508
2017-03-28 02:13:00,1691E-3,5C000400,-0724,0837,12084,030.6,045.5,0.216,750.4,01.17,0.508
2017-03-28 02:14:00,1650E-3,5C000400,-0724,0838,12015,030.6,045.5,0.216,750.2,01.17,0.508
2017-03-28 02:15:00,1775E-3,5C000400,-0724,0837,12088,030.6,045.5,0.215,750.4,01.17,0.508
2017-03-28 02:16:00,1783E-3,5C000400,-0724,0837,11962,030.6,045.5,0.216,750.4,01.17,0.508
2017-03-28 02:17:00,1608E-3,5C000400,-0724,0837,12085,030.6,045.5,0.216,750.2,01.17,0.508
2017-03-28 02:18:00,1726E-3,5C000400,-0724,0837,12136,030.6,045.5,0.216,750.2,01.17,0.508
2017-03-28 02:19:00,1801E-3,5C000400,-0724,0838,12174,030.6,045.5,0.216,750.3,01.17,0.508
2017-03-28 02:20:00,1720E-3,5C000400,-0724,0837,12034,030.6,045.5,0.215,750.2,01.17,0.508
2017-03-28 02:21:00,1668E-3,5C000400,-0724,0838,12074,030.6,045.5,0.216,750.3,01.17,0.508
2017-03-28 02:22:00,1758E-3,5C000400,-0724,0837,12140,030.6,045.5,0.216,750.1,01.17,0.508
2017-03-28 02:23:00,1713E-3,5C000400,-0724,0837,12105,030.6,045.5,0.216,750.1,01.17,0.508
2017-03-28 02:24:00,1699E-3,5C000400,-0724,0837,12192,030.6,045.5,0.216,750.2,01.17,0.508
2017-03-28 02:25:00,1707E-3,5C000400,-0724,0837,12030,030.6,045.5,0.216,750.2,01.17,0.508
2017-03-28 02:26:00,1755E-3,5C000400,-0724,0837,12016,030.6,045.5,0.216,750.1,01.17,0.508
2017-03-28 02:27:00,1779E-3,5C000400,-0724,0837,12062,030.6,045.5,0.217,750.3,01.17,0.508
2017-03-28 02:28:00,1706E-3,5C000400,-0724,0837,12027,030.6,045.5,0.217,750.3,01.17,0.508
2017-03-28 02:29:00,1711E-3,5C000400,-0724,0838,12055,030.6,045.5,0.216,750.3,01.17,0.508
2017-03-28 02:30:00,1704E-3,5C000400,-0724,0837,12157,030.6,045.5,0.216,750.1,01.17,0.508
2017-03-28 02:31:00,1619E-3,5C000400,-0724,0837,11998,030.6,045.5,0.216,750.1,01.17,0.508
2017-03-28 02:32:00,1704E-3,5C000400,-0724,0837,12119,030.6,045.5,0.216,750.3,01.17,0.508
2017-03-28 02:33:00,1610E-3,5C000400,-0724,0836,12124,030.6,045.5,0.216,750.1,01.17,0.508
2017-03-28 02:34:00,1547E-3,5C000400,-0724,0837,12002,030.6,045.5,0.216,750.0,01.17,0.508
2017-03-28 02:35:00,1713E-3,5C000400,-0724,0837,12105,030.5,045.5,0.216,749.9,01.17,0.508
2017-03-28 02:36:00,1717E-3,5C000400,-0724,0836,11917,030.5,045.5,0.216,749.9,01.17,0.508
2017-03-28 02:37:00,1734E-3,5C000400,-0724,0836,12071,030.5,045.5,0.216,749.7,01.17,0.508
2017-03-28 02:38:00,1736E-3,5C000400,-0724,0837,12065,030.5,045.5,0.216,749.9,01.17,0.508
2017-03-28 02:39:00,1761E-3,5C000400,-0724,0837,12141,030.5,045.5,0.216,749.9,01.17,0.508
2017-03-28 02:40:00,1655E-3,5C000400,-0724,0837,12024,030.5,045.5,0.216,749.6,01.17,0.508
2017-03-28 02:41:00,1617E-3,5C000400,-0724,0837,11973,030.5,045.5,0.216,749.6,01.17,0.508
2017-03-28 02:42:00,1639E-3,5C000400,-0724,0836,12059,030.5,045.5,0.216,749.8,01.17,0.508
2017-03-28 02:43:00,1728E-3,5C000400,-0724,0836,12067,030.5,045.5,0.216,749.9,01.17,0.508
2017-03-28 02:44:00,1714E-3,5C000400,-0724,0838,11882,030.5,045.5,0.216,749.6,01.17,0.508
2017-03-28 02:45:00,1741E-3,5C000400,-0724,0837,12170,030.5,045.5,0.216,749.8,01.17,0.508
2017-03-28 02:46:00,1682E-3,5C000400,-0724,0837,11903,030.5,045.5,0.216,750.0,01.17,0.508
2017-03-28 02:47:00,1698E-3,5C000400,-0724,0836,12219,030.5,045.5,0.216,749.8,01.17,0.508
2017-03-28 02:48:00,1788E-3,5C000400,-0724,0837,12145,030.5,045.5,0.216,749.4,01.17,0.508
2017-03-28 02:49:00,1670E-3,5C000400,-0724,0837,12035,030.5,045.5,0.216,749.4,01.17,0.508
2017-03-28 02:50:00,1728E-3,5C000400,-0724,0836,11955,030.5,045.5,0.216,749.8,01.17,0.508
2017-03-28 02:51:00,1871E-3,5C000400,-0724,0838,11984,030.5,045.5,0.216,749.6,01.17,0.508
2017-03-28 02:52:00,1661E-3,5C000400,-0724,0836,11973,030.5,045.5,0.216,749.5,01.17,0.508
2017-03-28 02:53:00,1586E-3,5C000400,-0724,0837,12179,030.5,045.5,0.216,749.3,01.17,0.508
2017-03-28 02:54:00,1710E-3,5C000400,-0724,0837,12093,030.5,045.5,0.216,749.3,01.17,0.508
2017-03-28 02:55:00,1629E-3,5C000400,-0724,0838,12028,030.5,045.5,0.216,749.3,01.17,0.508
2017-03-28 02:56:00,1621E-3,5C000400,-0724,0837,11977,030.5,045.5,0.216,749.2,01.17,0.508
2017-03-28 02:57:00,1650E-3,5C000400,-0724,0837,11994,030.5,045.5,0.216,749.4,01.17,0.508
2017-03-28 02:58:00,1603E-3,5C000400,-0724,0837,12088,030.5,045.5,0.216,749.5,01.17,0.508
2017-03-28 02:59:00,1762E-3,5C000400,-0724,0837,12010,030.5,045.5,0.216,749.4,01.17,0.508
2017-03-28 03:00:00,1776E-3,5C000400,-0724,0837,12097,030.5,045.5,0.216,749.4,01.17,0.508
2017-03-28 03:01:00,1743E-3,5C000400,-0724,0836,12200,030.5,045.5,0.216,749.4,01.17,0.508
2017-03-28 03:02:00,1603E-3,5C000400,-0724,0836,12079,030.4,045.5,0.216,749.6,01.17,0.508
2017-03-28 03:03:00,1631E-3,5C000400,-0724,0838,12041,030.4,045.5,0.216,749.8,01.17,0.508
2017-03-28 03:04:00,1741E-3,5C000400,-0724,0837,12017,030.4,045.5,0.216,749.3,01.17,0.508
2017-03-28 03:05:00,1587E-3,5C000400,-0724,0838,12020,030.4,045.5,0.216,749.4,01.17,0.508
2017-03-28 03:06:00,1675E-3,5C000400,-0724,0838,11988,030.4,045.5,0.216,749.3,01.17,0.508
2017-03-28 03:07:00,1690E-3,5C000400,-0724,0837,12059,030.4,045.5,0.216,749.5,01.17,0.508
2017-03-28 03:08:00,1731E-3,5C000400,-0724,0837,12109,030.4,045.5,0.216,749.2,01.17,0.508
2017-03-28 03:09:00,1689E-3,5C000400,-0724,0837,12057,030.4,045.5,0.216,749.2,01.17,0.508
2017-03-28 03:10:00,1719E-3,5C000400,-0724,0837,12088,030.4,045.5,0.216,749.6,01.17,0.508
2017-03-28 03:11:00,1730E-3,5C000400,-0724,0837,12079,030.4,045.5,0.216,749.3,01.17,0.508
2017-03-28 03:12:00,1740E-3,5C000400,-0724,0836,12089,030.4,045.5,0.216,749.6,01.17,0.508
2017-03-28 03:13:00,1665E-3,5C000400,-0724,0838,12124,030.4,045.5,0.216,749.7,01.17,0.508
2017-03-28 03:14:00,1603E-3,5C000400,-0724,0837,12047,030.4,045.5,0.216,749.2,01.17,0.508
2017-03-28 03:15:00,1544E-3,5C000400,-0724,0837,11992,030.4,045.5,0.216,749.5,01.17,0.508
2017-03-28 03:16:00,1633E-3,5C000400,-0724,0837,12079,030.4,045.5,0.216,749.2,01.17,0.508
2017-03-28 03:17:00,1670E-3,5C000400,-0724,0837,12111,030.4,045.5,0.216,749.2,01.17,0.508
2017-03-28 03:18:00,1692E-3,5C000400,-0724,0837,12060,030.4,045.5,0.216,749.0,01.17,0.508
2017-03-28 03:19:00,1727E-3,5C000400,-0724,0837,12036,030.4,045.5,0.217,749.2,01.17,0.508
2017-03-28 03:20:00,1600E-3,5C000400,-0724,0838,11994,030.4,045.5,0.216,749.0,01.17,0.508
2017-03-28 03:21:00,1623E-3,5C000400,-0724,0837,12030,030.4,045.5,0.216,749.0,01.17,0.508
2017-03-28 03:22:00,1719E-3,5C000400,-0724,0837,12127,030.4,045.5,0.216,749.2,01.17,0.508
2017-03-28 03:23:00,1676E-3,5C000400,-0724,0837,12163,030.4,045.5,0.216,749.1,01.17,0.508
2017-03-28 03:24:00,1556E-3,5C000400,-0724,0837,12025,030.4,045.5,0.216,749.3,01.17,0.508
2017-03-28 03:25:00,1682E-3,5C000400,-0724,0838,12179,030.4,045.5,0.217,749.1,01.17,0.508
2017-03-28 03:26:00,1814E-3,5C000400,-0724,0838,12045,030.4,045.5,0.217,749.0,01.17,0.508
2017-03-28 03:27:00,1667E-3,5C000400,-0724,0837,11989,030.4,045.5,0.217,748.9,01.17,0.508
2017-03-28 03:28:00,1742E-3,5C000400,-0724,0837,11968,030.4,045.5,0.216,749.1,01.17,0.508
2017-03-28 03:29:00,1643E-3,5C000400,-0724,0837,12089,030.4,045.5,0.216,749.2,01.17,0.508
2017-03-28 03:30:00,1654E-3,5C000400,-0724,0837,12089,030.4,045.5,0.216,749.3,01.17,0.508
2017-03-28 03:31:00,1713E-3,5C000400,-0724,0837,12109,030.4,045.5,0.216,749.1,01.17,0.508
2017-03-28 03:32:00,1753E-3,5C000400,-0724,0837,12074,030.4,045.5,0.216,749.2,01.17,0.508
2017-03-28 03:33:00,1792E-3,5C000400,-0724,0837,12001,030.4,045.5,0.217,748.9,01.17,0.508
2017-03-28 03:34:00,1543E-3,5C000400,-0724,0837,12009,030.4,045.5,0.216,748.9,01.17,0.508
2017-03-28 03:35:00,1674E-3,5C000400,-0724,0837,11997,030.3,045.5,0.217,749.3,01.17,0.508
2017-03-28 03:36:00,1713E-3,5C000400,-0724,0838,11982,030.3,045.5,0.217,748.8,01.17,0.508
2017-03-28 03:37:00,1767E-3,5C000400,-0724,0837,12043,030.3,045.5,0.216,748.9,01.17,0.508
2017-03-28 03:38:00,1705E-3,5C000400,-0724,0838,12150,030.4,045.5,0.216,749.3,01.17,0.508
2017-03-28 03:39:00,1645E-3,5C000400,-0724,0837,12135,030.4,045.5,0.216,748.8,01.17,0.508
2017-03-28 03:40:00,1742E-3,5C000400,-0724,0837,12120,030.3,045.5,0.216,748.5,01.17,0.508
2017-03-28 03:41:00,1719E-3,5C000400,-0724,0836,11996,030.3,045.5,0.216,749.1,01.17,0.508
2017-03-28 03:42:00,1653E-3,5C000400,-0724,0838,12021,030.3,045.5,0.216,749.2,01.17,0.508
2017-03-28 03:43:00,1654E-3,5C000400,-0724,0837,11972,030.3,045.5,0.216,749.2,01.17,0.508
2017-03-28 03:44:00,1786E-3,5C000400,-0724,0837,12077,030.3,045.5,0.217,749.6,01.17,0.508
2017-03-28 03:45:00,1588E-3,5C000400,-0724,0836,11959,030.3,045.5,0.217,748.8,01.17,0.508
2017-03-28 03:46:00,1673E-3,5C000400,-0724,0838,12111,030.3,045.5,0.216,748.8,01.17,0.508
2017-03-28 03:47:00,1727E-3,5C000400,-0724,0837,12166,030.3,045.5,0.216,749.1,01.17,0.508
2017-03-28 03:48:00,1701E-3,5C000400,-0724,0838,11977,030.3,045.5,0.216,749.1,01.17,0.508
2017-03-28 03:49:00,1805E-3,5C000400,-0724,0837,11994,030.3,045.5,0.216,749.2,01.17,0.508
2017-03-28 03:50:00,1699E-3,5C000400,-0724,0838,11982,030.3,045.5,0.216,749.3,01.17,0.508
2017-03-28 03:51:00,1767E-3,5C000400,-0724,0837,12008,030.3,045.5,0.216,749.0,01.17,0.508
2017-03-28 03:52:00,1659E-3,5C000400,-0724,0837,11917,030.2,045.5,0.217,748.8,01.17,0.508
2017-03-28 03:53:00,1656E-3,5C000400,-0724,0837,11980,030.3,045.5,0.217,749.5,01.17,0.508
2017-03-28 03:54:00,1673E-3,5C000400,-0724,0837,12163,030.2,045.5,0.217,749.7,01.17,0.508
2017-03-28 03:55:00,1516E-3,5C000400,-0724,0838,12027,030.2,045.5,0.217,749.9,01.17,0.508
2017-03-28 03:56:00,1709E-3,5C000400,-0724,0837,12149,030.2,045.5,0.216,750.0,01.17,0.508
2017-03-28 03:57:00,1804E-3,5C000400,-0724,0837,11982,030.2,045.5,0.216,749.6,01.17,0.508
2017-03-28 03:58:00,1512E-3,5C000400,-0724,0837,12057,030.2,045.5,0.217,749.4,01.17,0.508
2017-03-28 03:59:00,1821E-3,5C000400,-0724,0837,11976,030.2,045.5,0.217,750.0,01.17,0.508
2017-03-28 04:00:00,1595E-3,5C000400,-0724,0837,12254,030.2,045.5,0.217,750.0,01.17,0.508
2017-03-28 04:01:00,1691E-3,5C000400,-0724,0838,12253,030.2,045.5,0.217,749.8,01.17,0.508
2017-03-28 04:02:00,1788E-3,5C000400,-0724,0837,12026,030.2,045.5,0.216,750.1,01.17,0.508
2017-03-28 04:03:00,1778E-3,5C000400,-0724,0836,12021,030.2,045.5,0.217,749.8,01.17,0.508
2017-03-28 04:04:00,1712E-3,5C000400,-0724,0837,12053,030.2,045.5,0.217,749.9,01.17,0.508
2017-03-28 04:05:00,1826E-3,5C000400,-0724,0837,11972,030.2,045.5,0.217,750.0,01.17,0.508
2017-03-28 04:06:00,1807E-3,5C000400,-0724,0837,12043,030.2,045.5,0.217,750.1,01.17,0.508
2017-03-28 04:07:00,1669E-3,5C000400,-0724,0837,11938,030.2,045.5,0.216,750.1,01.17,0.508
2017-03-28 04:08:00,1703E-3,5C000400,-0724,0837,12144,030.2,045.5,0.217,750.0,01.17,0.508
2017-03-28 04:09:00,1676E-3,5C000400,-0724,0837,11972,030.1,045.5,0.217,750.3,01.17,0.508
2017-03-28 04:10:00,1792E-3,5C000400,-0724,0837,12093,030.1,045.5,0.217,750.0,01.17,0.508
2017-03-28 04:11:00,1741E-3,5C000400,-0724,0838,12092,030.1,045.5,0.217,750.1,01.17,0.508
2017-03-28 04:12:00,1826E-3,5C000400,-0724,0837,11993,030.1,045.5,0.217,749.9,01.17,0.508
2017-03-28 04:13:00,1774E-3,5C000400,-0724,0836,11961,030.1,045.5,0.217,750.2,01.17,0.508
2017-03-28 04:14:00,1687E-3,5C000400,-0724,0837,12078,030.1,045.5,0.217,750.1,01.17,0.508
2017-03-28 04:15:00,1626E-3,5C000400,-0724,0837,12112,030.1,045.5,0.217,750.2,01.17,0.508
2017-03-28 04:16:00,1693E-3,5C000400,-0724,0837,12120,030.1,045.5,0.217,750.2,01.17,0.508
2017-03-28 04:17:00,1748E-3,5C000400,-0724,0837,12081,030.1,045.5,0.217,750.4,01.17,0.508
2017-03-28 04:18:00,1806E-3,5C000400,-0724,0837,11996,030.1,045.5,0.217,750.1,01.17,0.508
2017-03-28 04:19:00,1722E-3,5C000400,-0724,0837,12093,030.1,045.5,0.217,750.1,01.17,0.508
2017-03-28 04:20:00,1702E-3,5C000400,-0724,0838,12166,030.1,045.5,0.217,750.5,01.17,0.508